Location: Newark
(43.9494°N, 6.8108°E)
Time: 16:44:25
(UTC+00:00)

A-11 Canister half - Pass Details

Date: 27 October 2019
Orbit: 1514 x 1686 km, 47.2° (Epoch: 12 November)

Event Time Altitude Azimuth Distance (km) Brightness Sun altitude
Rises 05:17:38 0° 293° (WNW) 4,846 - -8.6°
Exits shadow 05:20:19 - 292° (WNW) 3,991 10.5 -8.1°
Reaches altitude 10° 05:20:49 10° 291° (WNW) 3,835 10.4 -8.0°
Maximum altitude 05:30:24 67° 212° (SSW) 1,673 9.2 -6.3°
Drops below altitude 10° 05:39:39 10° 132° (SE) 3,699 12.1 -4.7°
Sets 05:42:40 0° 130° (SE) 4,666 12.9 -4.2°
